TimeEDT,TemperatureF,Dew PointF,Humidity,Sea Level PressureIn,VisibilityMPH,Wind Direction,Wind SpeedMPH,Gust SpeedMPH,PrecipitationIn,Events,Conditions,WindDirDegrees,DateUTC
12:03 AM,69.8,66.2,88,29.90,2.5,SSW,12.7,20.7,0.07,Rain-Thunderstorm,Heavy Rain,210,2013-04-20 04:03:00
12:05 AM,69.8,66.2,88,29.90,3.0,SW,10.4,19.6,0.07,Rain,Rain,220,2013-04-20 04:05:00
12:14 AM,69.8,66.2,88,29.90,3.0,SW,10.4,-,0.14,Rain,Heavy Rain,220,2013-04-20 04:14:00
12:22 AM,68.0,66.2,94,29.90,2.5,SSW,9.2,-,0.18,Rain,Heavy Rain,200,2013-04-20 04:22:00
12:26 AM,68.0,66.2,94,29.91,3.0,South,10.4,-,0.20,Rain,Heavy Rain,190,2013-04-20 04:26:00
12:33 AM,68.0,66.2,94,29.90,3.0,SSW,10.4,-,0.23,Rain,Heavy Rain,210,2013-04-20 04:33:00
12:54 AM,68.0,66.0,93,29.90,5.0,SSW,6.9,-,0.31,Rain-Thunderstorm,Rain,200,2013-04-20 04:54:00
1:03 AM,68.0,66.2,94,29.90,4.0,South,6.9,-,0.02,Rain,Rain,180,2013-04-20 05:03:00
1:32 AM,68.0,66.2,94,29.86,10.0,SSE,6.9,-,0.08,Rain,Light Rain,160,2013-04-20 05:32:00
1:49 AM,68.0,66.2,94,29.88,10.0,SSW,8.1,-,0.08,Rain,Light Rain,200,2013-04-20 05:49:00
1:54 AM,68.0,66.0,93,29.89,10.0,SSW,6.9,-,0.08,Rain,Light Rain,210,2013-04-20 05:54:00
2:26 AM,68.0,64.4,88,29.89,6.0,SW,5.8,-,0.02,Rain,Light Rain,220,2013-04-20 06:26:00
2:33 AM,68.0,64.4,88,29.89,10.0,SW,4.6,-,0.03,Rain,Light Rain,220,2013-04-20 06:33:00
2:54 AM,68.0,64.9,90,29.88,6.0,South,4.6,-,0.04,Rain,Rain,180,2013-04-20 06:54:00
3:24 AM,68.0,64.4,88,29.89,6.0,SSW,6.9,-,0.02,Rain,Light Rain,200,2013-04-20 07:24:00
3:31 AM,68.0,66.2,94,29.88,9.0,SSW,4.6,-,0.03,Rain,Light Rain,210,2013-04-20 07:31:00
3:54 AM,68.0,64.9,90,29.89,6.0,SSW,6.9,-,0.05,Rain,Light Rain,200,2013-04-20 07:54:00
4:54 AM,68.0,64.9,90,29.88,4.0,SSW,6.9,-,0.10,Rain,Light Rain,210,2013-04-20 08:54:00
5:10 AM,66.2,62.6,88,29.91,4.0,West,18.4,34.5,0.02,Rain,Rain,260,2013-04-20 09:10:00
5:13 AM,64.4,60.8,88,29.92,4.0,WNW,16.1,34.5,0.03,Rain,Rain,290,2013-04-20 09:13:00
5:37 AM,60.8,55.4,82,29.93,10.0,WNW,16.1,28.8,0.04,Rain,Light Rain,290,2013-04-20 09:37:00
5:54 AM,60.1,55.0,83,29.94,10.0,WNW,12.7,18.4,0.04,Rain,Light Rain,290,2013-04-20 09:54:00
6:43 AM,59.0,55.4,88,29.96,10.0,NW,5.8,-,0.00,Rain,Light Rain,310,2013-04-20 10:43:00
6:54 AM,59.0,55.0,87,29.98,10.0,NW,5.8,-,0.01,Rain,Light Rain,310,2013-04-20 10:54:00
7:01 AM,59.0,55.4,88,29.99,10.0,NW,6.9,-,0.00,Rain,Light Rain,310,2013-04-20 11:01:00
7:29 AM,55.4,48.2,77,30.02,10.0,NNW,10.4,19.6,0.01,Rain,Light Rain,340,2013-04-20 11:29:00
7:54 AM,55.0,48.9,80,30.04,10.0,NNW,10.4,-,0.02,Rain,Light Rain,340,2013-04-20 11:54:00
8:54 AM,54.0,46.9,77,30.07,10.0,NNW,4.6,-,0.01,,Mostly Cloudy,330,2013-04-20 12:54:00
9:54 AM,55.0,46.0,72,30.09,10.0,NNW,9.2,-,N/A,,Overcast,340,2013-04-20 13:54:00
10:54 AM,55.9,44.1,64,30.11,10.0,North,9.2,18.4,N/A,,Mostly Cloudy,360,2013-04-20 14:54:00
11:54 AM,55.9,44.1,64,30.12,10.0,NNW,10.4,-,N/A,,Clear,340,2013-04-20 15:54:00
12:43 PM,57.2,44.6,63,30.13,10.0,North,9.2,-,N/A,,Mostly Cloudy,350,2013-04-20 16:43:00
12:54 PM,57.9,45.0,62,30.12,10.0,North,6.9,-,N/A,,Overcast,10,2013-04-20 16:54:00
1:34 PM,59.0,44.6,59,30.14,10.0,North,9.2,-,N/A,,Partly Cloudy,10,2013-04-20 17:34:00
1:54 PM,59.0,44.1,58,30.14,10.0,North,5.8,-,N/A,,Clear,10,2013-04-20 17:54:00
2:54 PM,60.1,43.0,53,30.13,10.0,Calm,Calm,-,N/A,,Clear,0,2013-04-20 18:54:00
3:54 PM,60.1,44.1,55,30.13,10.0,North,5.8,-,N/A,,Clear,350,2013-04-20 19:54:00
4:54 PM,59.0,43.0,55,30.14,10.0,NNW,3.5,-,N/A,,Clear,330,2013-04-20 20:54:00
5:54 PM,57.9,44.1,60,30.16,10.0,North,5.8,-,N/A,,Clear,350,2013-04-20 21:54:00
6:54 PM,57.0,42.1,57,30.18,10.0,NNW,5.8,-,N/A,,Clear,340,2013-04-20 22:54:00
7:54 PM,55.9,43.0,62,30.21,10.0,NNW,5.8,-,N/A,,Clear,340,2013-04-20 23:54:00
8:54 PM,55.0,43.0,64,30.24,10.0,NNW,5.8,-,N/A,,Clear,340,2013-04-21 00:54:00
9:54 PM,53.1,44.1,71,30.27,10.0,Calm,Calm,-,N/A,,Clear,0,2013-04-21 01:54:00
10:54 PM,51.1,46.0,83,30.28,10.0,Calm,Calm,-,N/A,,Clear,0,2013-04-21 02:54:00
11:54 PM,51.1,45.0,80,30.27,10.0,Calm,Calm,-,N/A,,Clear,0,2013-04-21 03:54:00